Theta_e
324 325 325 324 325 327 326 325 323 324 325 325 325 323 324 322 323 327 329 333 336 337 339 342 342 340 336 338 342 343 345 345 345 346 346 347 347 348 350 351 351 350 348 349 350 350 350 349 348 349 350 351 352 352 351 351 351 351 351 350 348 344 344 345 345 345 345 347 349 350 349 348 347 348 348 348 348 348 349 350 350 350 350 350 351 352
325 324 324 325 326 327 327 326 325 325 325 324 324 323 323 323 323 327 328 332 336 336 337 341 342 341 338 337 339 342 342 343 344 344 344 346 345 346 349 350 350 349 347 348 349 349 350 349 349 349 350 351 352 351 351 351 351 351 351 352 350 347 345 345 345 345 345 345 345 345 346 345 345 346 347 347 346 347 349 350 349 349 349 350 351 352
324 324 324 325 326 326 327 327 325 325 325 324 324 322 321 323 325 327 329 332 334 335 336 339 340 340 340 338 338 340 340 340 342 343 343 345 344 345 347 348 349 348 347 347 348 348 348 349 349 348 349 349 350 351 351 351 351 351 351 352 351 349 346 346 346 346 344 343 342 342 342 343 343 344 345 345 345 347 349 349 349 350 350 351 352 352
322 323 325 325 325 326 326 326 326 325 325 324 323 321 320 323 324 323 327 331 334 336 336 338 339 339 340 340 339 339 338 339 340 341 342 344 344 344 345 347 347 347 347 346 346 347 347 347 348 348 348 348 349 350 351 351 351 351 351 350 350 350 349 347 348 349 346 342 342 342 342 342 342 344 344 344 345 347 349 349 349 351 352 352 352 353
323 324 325 325 325 326 325 326 326 324 322 323 324 322 320 323 324 324 327 331 334 335 338 337 334 336 341 342 341 340 338 338 339 339 340 342 344 343 344 345 346 347 346 345 345 346 346 346 347 347 348 348 349 350 350 350 351 350 350 350 349 350 351 350 349 350 349 345 344 345 346 346 346 346 345 344 344 344 346 348 348 349 351 352 352 353
325 325 324 325 325 326 325 325 325 323 321 321 323 324 324 324 325 326 328 327 328 330 337 336 328 333 344 343 342 342 341 340 338 339 339 340 342 342 342 344 345 346 345 345 345 345 346 346 346 347 347 348 348 348 349 349 351 350 350 350 349 349 351 352 351 351 351 349 346 344 345 347 347 346 344 342 340 340 343 345 346 348 350 351 351 351
326 325 325 325 325 325 325 324 324 324 320 318 322 325 325 326 325 326 326 324 327 330 337 337 330 332 339 340 343 343 343 343 340 339 339 338 341 340 341 343 344 345 345 345 345 345 345 346 346 347 347 348 348 348 348 349 350 351 351 351 350 349 350 351 352 351 351 351 349 345 342 341 341 341 339 338 337 337 340 344 345 347 348 349 349 349
326 325 325 325 325 325 323 323 324 325 320 318 323 325 326 326 324 326 325 322 328 333 335 337 334 331 331 335 343 344 343 346 343 342 341 338 340 340 340 341 343 345 345 346 346 345 345 346 346 347 347 347 348 348 349 349 350 351 351 350 350 350 349 351 352 351 351 350 349 347 342 338 337 337 336 336 336 338 342 344 346 347 348 348 348 350
326 326 325 325 324 323 323 323 324 324 322 321 325 326 325 326 325 327 326 323 326 326 326 334 335 331 332 338 342 344 343 345 345 344 343 340 340 340 340 340 342 344 345 346 346 346 346 346 346 347 347 348 348 349 349 349 349 350 350 351 350 351 350 350 351 351 351 349 347 345 342 338 336 335 335 335 336 340 345 347 347 348 349 349 349 350
326 326 325 325 324 323 323 324 324 324 324 323 325 325 324 325 326 327 325 323 323 322 322 330 331 329 334 340 341 342 342 343 345 345 343 342 340 340 340 340 341 343 345 345 346 346 346 346 346 346 347 348 349 349 349 349 349 350 350 351 351 351 351 351 351 351 350 349 348 345 341 337 336 336 335 336 339 343 347 347 348 348 349 349 350 351
326 326 325 325 325 324 323 324 323 323 324 324 324 324 323 324 325 327 329 327 321 320 323 326 329 328 331 336 339 341 342 342 345 345 343 343 341 341 341 341 341 342 344 345 345 345 346 346 346 346 347 348 349 349 349 349 350 350 350 351 351 351 351 351 351 350 350 349 348 345 340 336 335 336 337 339 342 345 348 348 348 348 348 349 350 350
325 325 326 326 325 325 324 323 323 323 324 324 324 323 320 320 321 321 323 325 320 321 327 328 329 327 325 333 340 341 344 343 343 344 344 343 342 342 342 341 342 342 343 344 345 345 346 346 346 347 347 348 349 349 350 350 350 350 350 351 351 352 352 352 351 350 350 349 347 345 342 337 334 335 337 339 342 344 346 347 347 347 348 349 350 350
323 325 326 326 326 326 324 323 323 323 323 323 322 321 317 315 318 316 317 321 321 326 334 331 329 328 327 337 344 341 342 343 342 343 343 342 342 342 343 342 342 342 342 343 344 345 346 347 347 347 348 348 349 350 350 350 350 350 350 350 351 351 352 351 351 351 350 349 348 346 343 339 336 334 335 337 340 343 344 345 346 346 348 349 350 349
321 324 325 325 326 326 325 322 319 320 322 321 319 319 316 314 316 316 317 320 322 327 333 330 330 328 328 337 343 341 341 341 340 341 342 342 342 342 344 344 343 343 342 343 344 345 346 346 347 347 348 348 349 349 350 350 350 350 350 350 350 351 351 351 351 351 350 350 349 346 343 340 337 335 335 336 338 342 343 344 344 344 345 347 347 346
318 321 325 325 324 326 326 324 321 323 323 321 322 321 318 317 318 318 318 320 323 328 330 326 327 326 327 338 344 340 339 339 340 341 341 342 342 343 344 344 344 344 344 344 344 344 345 346 346 347 347 348 349 349 350 350 350 351 350 350 350 350 351 351 351 351 350 350 349 347 343 339 338 336 335 336 337 340 343 343 343 343 344 345 345 344
317 319 325 326 325 326 327 326 324 324 322 321 324 321 318 321 323 321 323 326 325 326 326 324 328 334 338 345 345 339 339 340 338 340 341 341 342 343 344 345 344 345 345 344 344 344 345 345 345 347 347 348 349 348 349 350 350 350 350 350 350 350 350 350 351 351 350 350 349 349 346 340 338 337 336 337 338 340 342 343 343 343 344 344 344 343
317 319 325 325 326 327 326 328 325 323 324 324 321 318 320 326 324 320 321 326 321 319 324 325 327 335 338 339 341 339 340 341 340 341 341 341 342 342 344 345 344 346 346 345 346 345 345 346 345 347 347 348 349 348 349 349 349 350 350 350 350 350 350 350 351 351 350 351 350 350 348 343 338 338 337 337 338 340 342 344 344 343 344 345 344 343
321 320 326 325 325 327 326 327 327 326 328 324 318 319 324 325 324 324 321 320 317 317 323 322 321 326 329 335 346 341 338 342 342 342 342 341 342 342 343 345 344 345 346 346 347 346 346 346 346 347 347 347 348 348 349 349 349 350 350 350 350 350 350 351 351 351 351 351 351 351 350 347 341 338 338 338 338 340 342 343 344 344 344 344 344 343
323 319 324 327 325 326 327 325 325 327 326 324 323 324 325 320 317 321 321 318 317 316 319 321 323 327 327 337 347 336 334 342 341 341 343 341 343 342 342 345 344 344 346 346 347 347 347 347 347 347 348 348 348 348 349 349 350 351 350 350 351 350 351 351 351 352 352 352 352 352 351 349 346 341 339 339 340 341 342 342 343 343 343 344 344 344
325 319 320 326 326 325 327 325 322 323 325 327 326 324 326 323 317 318 320 320 321 320 321 320 321 327 336 347 349 338 336 342 340 341 342 340 341 342 341 344 344 344 344 345 347 347 347 348 347 348 348 348 349 349 349 350 350 350 351 351 351 351 351 352 351 352 353 353 353 353 353 352 349 345 342 341 342 342 342 342 342 343 343 343 344 344
326 322 318 325 328 323 323 324 323 323 325 324 322 321 321 321 320 319 320 321 323 325 327 323 319 329 349 355 348 343 339 340 340 340 341 339 340 341 342 343 343 344 344 345 346 347 347 348 347 348 348 348 348 349 350 350 350 351 351 351 352 352 353 352 352 353 353 354 354 354 354 353 352 349 345 343 342 343 343 341 342 342 342 342 343 343
323 322 319 320 321 320 322 327 327 326 327 325 323 322 320 321 320 317 319 324 322 321 326 326 321 331 354 355 346 346 342 340 340 340 340 339 338 340 342 342 343 343 344 345 346 346 347 347 347 348 348 349 349 350 350 351 351 351 352 352 352 353 353 353 353 353 354 354 355 355 354 354 353 351 348 345 344 344 343 341 341 342 342 342 341 342
325 324 320 318 320 322 325 328 326 325 328 326 325 325 323 323 321 315 320 328 322 316 323 325 320 329 355 360 349 347 345 339 336 338 340 339 338 340 341 342 343 343 344 345 344 345 346 346 348 348 348 349 349 350 351 351 352 352 352 352 353 353 353 353 354 354 354 355 355 355 355 354 354 352 350 347 344 344 343 341 341 342 342 342 341 341
328 325 320 319 321 323 324 327 327 327 327 325 325 326 324 323 322 320 328 336 326 317 320 320 317 326 350 353 340 343 346 338 334 334 337 338 338 341 341 342 344 343 344 345 344 345 346 346 348 349 349 350 350 351 352 352 352 352 352 353 353 353 353 354 355 354 355 355 355 355 354 354 353 353 352 349 345 343 342 341 341 341 341 341 341 341
325 324 322 319 318 320 321 322 322 324 325 324 325 326 325 325 324 322 328 330 324 321 322 316 315 330 356 352 333 338 340 337 337 336 335 337 338 340 342 342 344 344 344 345 344 345 346 347 349 349 349 350 351 351 352 352 352 352 353 353 353 353 354 354 355 355 355 355 355 355 355 354 353 353 352 349 346 344 343 342 342 341 341 341 341 341
323 325 324 319 317 318 317 318 324 326 324 323 326 325 324 327 323 321 321 319 320 326 326 320 321 336 358 349 331 331 331 329 336 335 334 338 338 339 341 342 344 345 345 345 345 346 346 346 348 349 350 350 351 352 352 352 353 353 353 354 353 354 355 355 355 356 356 356 356 355 355 354 353 351 350 348 346 344 343 343 342 341 341 341 341 341
325 326 325 321 320 319 318 324 336 336 323 320 325 323 324 326 323 323 321 316 323 328 323 330 340 336 338 342 333 332 332 328 332 335 334 337 337 338 341 342 344 346 345 346 346 345 346 346 347 348 349 350 351 352 352 352 353 353 353 354 354 354 355 355 356 356 357 356 356 356 355 354 352 349 348 347 345 344 344 344 342 341 340 341 342 343
326 325 325 325 324 323 323 327 333 333 324 321 323 322 323 326 323 322 319 319 330 324 314 334 355 334 332 350 342 332 332 331 338 344 338 335 336 338 339 340 343 344 344 345 345 345 346 346 347 348 348 349 351 351 352 352 352 353 353 353 354 354 355 355 356 357 357 357 357 356 355 354 352 348 346 345 346 346 345 344 343 341 341 342 343 343
324 325 326 324 324 324 325 326 327 329 328 325 325 323 322 325 323 321 321 323 331 323 315 334 354 338 341 361 351 342 342 340 342 344 338 335 337 337 338 340 342 343 344 345 344 346 346 346 347 347 347 348 349 350 352 352 352 353 353 354 354 354 355 355 356 357 357 357 357 356 356 354 353 350 347 346 347 348 347 345 344 343 342 342 343 343
324 329 331 325 323 324 325 326 325 327 328 327 326 325 323 325 323 322 324 325 327 327 325 336 344 338 339 346 342 338 340 340 340 337 335 338 339 339 338 339 342 343 343 344 345 345 345 345 346 346 347 348 349 350 351 351 352 353 353 353 354 354 355 355 356 357 357 357 356 356 356 355 354 352 349 348 347 347 347 345 345 345 344 343 344 344
323 330 331 325 322 322 323 327 326 325 327 326 326 328 325 324 324 323 324 325 326 327 330 332 334 335 339 343 339 329 328 334 337 336 336 339 341 342 341 340 341 343 343 344 345 345 345 345 346 346 346 347 347 348 350 351 352 353 353 354 354 355 355 355 356 356 356 356 356 357 357 356 354 353 351 349 348 347 346 346 346 346 345 345 346 347
323 326 327 325 322 322 322 325 325 324 325 323 323 327 326 324 324 323 324 327 327 328 331 330 329 334 343 347 343 332 329 335 339 338 337 337 337 343 344 343 343 343 344 345 345 345 346 346 347 347 346 346 346 347 349 351 353 353 354 355 355 355 356 356 356 356 356 357 357 357 357 356 355 354 352 351 350 348 347 347 347 348 348 347 346 347
322 324 325 325 324 325 324 323 324 323 321 319 321 325 327 327 327 326 327 330 328 329 331 327 327 337 347 343 339 335 333 338 340 337 337 341 343 343 344 344 344 344 344 345 345 346 346 346 347 347 346 346 345 345 346 348 350 352 352 353 355 356 356 356 357 356 356 357 357 357 357 356 356 354 352 351 350 349 350 349 350 350 349 347 347 348
323 324 325 325 325 325 326 325 325 320 318 321 327 328 328 328 329 330 331 331 330 330 330 329 331 338 344 341 338 340 336 335 335 331 332 340 345 346 345 343 342 343 344 345 345 346 347 347 347 346 346 345 342 340 341 344 346 348 350 352 355 357 357 357 357 357 357 357 357 357 356 356 356 354 352 351 351 352 353 352 351 350 349 349 349 350
323 324 324 325 327 327 328 327 322 320 325 336 339 333 330 329 329 334 339 340 339 332 332 342 345 342 343 341 336 337 336 334 336 338 336 337 338 342 345 344 342 341 342 343 344 344 344 345 345 346 345 343 341 338 340 343 345 348 351 355 357 358 358 358 357 358 358 358 358 357 357 356 356 354 353 353 353 354 354 353 352 351 350 351 351 350
322 323 324 326 327 327 328 325 322 326 336 344 341 333 332 332 330 336 344 348 349 344 343 353 355 350 350 343 334 334 335 335 341 346 344 342 339 338 340 342 344 344 343 344 343 342 342 343 344 345 344 343 343 340 341 344 346 350 355 357 358 358 358 358 358 359 359 358 358 358 357 356 355 355 355 355 355 355 355 354 353 351 351 352 352 351
322 322 325 327 325 327 328 324 324 328 329 333 338 337 337 337 334 341 347 349 353 352 348 353 357 355 354 349 339 333 332 339 349 350 350 349 344 340 339 338 340 344 345 347 348 347 347 346 345 345 345 343 343 341 342 344 346 351 355 358 359 359 358 359 359 358 359 359 358 358 357 357 356 356 356 356 357 356 354 354 353 352 352 353 353 353
325 323 326 329 329 330 328 324 324 323 325 335 346 343 340 340 340 347 352 351 356 356 348 351 359 357 358 360 347 334 338 359 364 353 352 353 347 342 342 339 337 338 339 340 342 343 345 345 346 347 347 345 344 342 344 346 346 350 354 355 357 358 359 359 358 358 359 359 359 358 358 358 357 357 357 357 357 356 354 353 353 352 353 353 353 352
329 328 327 330 333 331 326 324 324 322 327 343 351 341 335 336 340 348 351 349 358 357 346 349 358 356 357 360 352 347 363 379 367 353 352 356 352 345 343 342 340 342 342 341 338 336 336 338 340 342 343 344 345 345 347 348 348 348 350 350 352 356 359 359 358 358 359 359 359 359 358 359 358 358 358 358 357 356 355 354 353 353 354 354 354 353
332 335 333 330 332 332 327 325 325 325 331 342 342 336 333 334 337 340 340 345 359 356 345 347 354 353 350 348 349 360 373 373 362 354 353 355 355 351 346 343 342 343 344 344 341 339 338 338 337 339 342 345 345 345 348 351 352 351 350 350 353 356 359 359 357 356 357 358 360 360 359 359 359 359 359 358 357 357 356 355 355 355 356 356 356 356
333 335 336 332 331 332 331 329 327 329 336 340 337 336 335 333 332 333 334 345 354 349 346 348 349 350 349 347 351 359 360 356 353 351 350 351 355 356 353 348 345 344 344 344 341 339 340 340 341 342 344 347 349 350 351 351 351 350 350 353 357 359 358 356 355 355 357 359 360 360 360 360 359 359 359 359 358 358 358 357 357 356 357 358 358 359
334 336 338 336 334 333 333 335 333 331 334 335 333 336 337 332 334 336 340 347 348 347 351 352 350 350 350 349 351 352 350 349 349 348 348 349 351 355 357 355 350 346 346 346 343 339 337 339 340 341 341 344 350 355 357 358 356 351 348 352 356 356 353 354 357 358 359 360 360 360 361 361 360 360 360 360 360 360 359 359 358 358 358 359 359 360
334 337 338 336 335 334 334 340 339 333 333 334 335 343 346 342 340 343 345 347 349 350 351 349 348 349 348 347 348 348 347 347 345 346 347 346 346 350 356 358 357 353 350 350 349 346 343 340 339 338 339 339 343 349 355 359 360 359 359 358 353 345 344 350 357 360 360 361 361 360 361 361 361 361 361 362 362 361 360 360 360 361 360 360 361 362
334 336 336 335 335 335 336 340 340 335 333 334 334 340 345 344 342 344 346 347 348 349 348 347 347 347 345 346 346 345 345 345 344 345 346 345 345 346 349 354 358 357 355 354 354 352 350 347 343 341 341 339 338 340 344 348 352 356 360 362 360 356 355 354 356 359 362 361 361 361 361 361 362 362 362 362 362 362 361 361 361 362 362 362 363 364
334 334 335 334 335 336 337 338 337 334 334 335 334 336 340 342 344 346 346 346 346 346 346 345 344 344 344 345 345 346 347 346 346 347 347 346 348 348 347 350 353 354 355 355 355 355 354 353 351 350 349 348 346 344 342 342 343 347 350 355 359 363 363 362 361 361 362 362 362 361 361 362 363 364 363 363 363 363 363 363 363 363 364 364 364 365
332 332 335 336 336 337 336 335 334 334 334 334 334 334 336 340 343 343 344 343 342 342 342 341 341 342 343 344 344 343 342 343 345 346 346 347 349 348 349 349 350 351 352 352 353 355 355 356 355 355 355 356 355 355 354 351 347 347 351 355 359 363 365 364 365 364 363 363 363 362 362 364 365 365 365 365 364 364 363 363 363 364 364 365 364 363
331 331 334 336 336 337 338 336 334 335 335 333 333 333 333 335 337 339 340 339 338 337 337 337 338 338 338 340 339 337 338 341 344 344 345 346 347 348 350 350 350 351 352 351 352 352 354 356 356 354 354 355 356 358 359 358 352 349 351 354 359 364 366 366 366 366 365 365 365 364 365 365 366 367 367 366 366 366 365 364 364 364 364 364 363 362
330 331 335 337 336 337 339 336 332 333 333 331 330 331 330 331 332 333 335 335 335 334 334 334 335 335 335 336 337 337 338 340 341 342 343 344 345 346 348 349 351 351 351 352 352 352 353 355 355 354 355 356 357 357 358 360 358 351 346 346 352 361 366 367 365 365 366 366 367 367 367 368 368 367 368 367 367 367 366 365 364 364 363 361 359 356
328 331 335 336 335 337 338 335 334 336 336 331 328 328 328 328 329 330 331 332 332 331 332 332 332 334 334 334 335 337 337 337 338 340 341 340 342 343 344 346 349 350 350 351 351 352 353 354 354 355 355 355 357 359 361 363 365 363 361 359 359 363 366 366 365 365 365 365 367 367 367 367 367 367 368 368 367 366 365 364 363 361 358 354 349 345
329 332 335 336 337 338 337 334 336 340 338 331 328 327 327 327 327 328 328 329 329 330 331 331 330 332 333 334 335 337 336 336 337 339 339 340 340 341 342 344 346 347 348 349 349 351 352 353 354 355 354 354 355 358 359 361 363 365 367 368 367 366 366 364 365 365 361 357 358 360 361 362 363 365 365 365 366 365 363 361 358 354 349 345 343 341
329 331 333 335 337 337 334 333 334 336 334 330 327 326 326 326 326 326 326 326 326 328 330 332 331 331 331 332 333 335 335 334 337 339 340 340 340 340 342 343 344 345 346 346 347 348 349 350 352 353 353 354 353 353 354 354 355 358 363 365 365 366 366 365 365 363 357 351 349 349 348 347 348 353 357 359 362 361 356 354 353 350 346 344 342 341
Wind_Speed
13 5 6 8 6 6 7 7 8 7 8 9 7 6 8 8 8 10 8 6 8 9 11 15 14 15 21 20 22 32 34 28 28 30 31 33 35 37 39 40 42 44 45 44 43 43 42 41 40 40 40 39 38 36 35 34 33 33 33 33 34 35 34 34 35 34 33 32 30 29 28 27 26 25 24 22 22 22 22 21 19 17 16 14 13 13
12 8 9 10 7 7 7 7 8 8 10 9 8 8 8 8 10 11 7 6 8 8 8 12 14 15 20 19 21 29 26 21 27 28 29 34 36 37 41 43 45 46 44 42 42 43 42 42 43 43 42 42 42 40 39 37 35 34 34 34 34 33 34 35 35 35 35 34 33 32 31 28 26 25 24 23 22 22 22 21 20 18 16 15 14 13
8 9 11 10 7 8 7 7 8 10 11 9 8 7 8 9 8 10 8 7 8 7 6 11 13 12 17 18 18 24 22 23 35 36 34 38 36 36 41 43 45 44 41 41 43 44 43 44 45 45 44 44 44 43 41 39 36 35 36 36 36 34 34 34 33 35 36 35 33 31 30 28 26 25 24 22 21 21 22 22 21 19 17 15 14 14
6 7 10 10 9 10 9 10 9 8 9 9 8 6 9 11 6 6 7 6 8 8 8 12 11 7 11 13 14 23 27 28 37 41 41 44 42 41 44 46 46 44 43 44 45 46 45 44 46 47 46 45 44 44 43 42 39 37 37 37 38 37 36 34 33 34 35 35 33 31 29 27 25 24 23 21 21 22 22 22 22 20 18 16 15 15
6 5 11 12 11 12 11 11 11 8 7 9 11 10 11 13 8 8 7 5 6 5 5 9 6 1 7 12 12 17 23 25 32 36 36 41 45 46 46 46 47 48 48 48 48 48 47 46 48 49 48 46 45 45 45 44 43 41 39 38 39 39 38 36 34 33 33 35 35 34 31 29 28 27 26 25 25 24 24 24 24 22 20 19 17 17
9 8 13 14 12 14 13 11 13 10 6 8 12 14 16 16 11 11 9 4 3 4 3 8 5 3 6 12 14 13 13 16 24 26 28 36 41 41 42 43 46 49 50 51 51 50 50 49 49 50 49 48 47 47 46 45 45 43 41 40 39 40 40 38 36 34 33 34 35 36 36 34 34 33 32 31 29 27 26 26 25 23 21 20 19 19
8 11 12 12 14 15 14 11 13 12 7 7 10 13 17 18 14 13 11 4 2 4 5 9 8 3 4 8 13 15 13 14 18 19 23 32 37 38 40 42 44 46 48 50 51 51 52 50 50 51 51 50 50 49 47 46 45 44 43 42 40 40 41 40 39 36 35 35 35 36 37 36 36 35 35 33 30 28 27 26 25 24 22 21 20 19
8 13 13 13 14 13 12 11 12 12 8 8 8 9 13 16 16 16 12 7 5 4 5 8 8 4 5 9 12 15 15 14 15 17 19 27 35 39 41 43 46 48 48 49 50 51 52 51 52 53 53 53 52 50 49 48 47 46 45 44 43 41 41 42 41 39 38 37 35 35 36 36 36 35 34 32 30 28 26 25 24 24 23 21 20 18
7 13 15 15 13 10 10 11 12 13 10 9 7 8 11 13 15 15 11 8 6 4 5 7 6 3 5 8 10 13 15 14 16 18 18 22 34 40 42 45 48 50 51 51 52 52 53 53 53 54 54 55 53 51 50 50 48 48 47 46 45 43 42 42 42 41 40 39 37 35 35 36 35 34 33 31 30 28 25 24 24 23 23 21 20 18
6 12 17 15 12 9 9 11 14 13 10 9 8 8 10 11 12 11 9 8 5 6 6 8 8 4 5 4 8 9 11 14 15 16 17 22 34 41 43 46 48 51 52 52 53 53 54 54 54 54 55 55 55 53 52 51 50 49 49 48 47 45 44 43 43 43 42 41 39 37 35 35 35 34 32 31 30 28 25 24 24 24 23 22 20 20
7 12 15 12 12 11 11 12 14 15 14 10 7 7 9 8 7 6 4 5 4 5 8 10 12 8 6 4 8 10 13 18 16 14 16 19 29 39 44 46 48 50 51 52 53 53 54 55 55 54 54 55 55 55 54 52 52 51 51 50 49 48 46 45 44 43 43 42 41 39 37 35 35 34 33 32 31 29 27 26 25 25 24 23 22 21
10 11 9 8 14 14 11 11 13 16 17 11 6 6 6 6 5 5 3 3 5 7 7 10 14 13 9 6 8 13 18 22 19 16 18 18 23 35 42 45 48 50 52 52 53 52 53 54 54 54 54 55 55 55 55 55 54 53 52 52 51 50 49 47 46 44 44 43 43 41 39 37 35 35 34 34 33 32 30 28 27 26 25 24 23 23
8 10 8 8 14 14 10 8 9 11 13 12 7 6 6 4 4 6 6 3 5 7 6 9 12 12 10 7 11 17 18 19 19 19 23 24 26 34 40 45 48 50 51 52 53 52 53 53 53 54 54 55 55 56 57 56 55 54 54 53 53 52 51 49 47 46 44 44 44 43 41 39 37 36 36 35 34 33 31 30 29 28 27 27 26 26
4 7 10 11 11 12 12 7 7 7 9 11 8 7 7 6 6 7 6 4 4 6 6 8 9 6 6 6 11 17 19 20 23 27 33 35 36 38 41 45 47 48 50 51 52 52 53 54 55 56 56 56 56 57 57 56 56 56 55 54 54 53 52 51 49 47 45 45 44 43 42 40 39 38 38 37 36 34 32 32 32 30 29 28 28 27
7 6 8 11 8 10 12 10 8 7 8 10 7 7 7 6 6 6 4 4 4 5 5 5 6 5 5 6 12 17 20 24 29 35 39 39 40 40 40 41 43 45 49 50 52 53 54 56 56 57 57 57 58 58 57 57 56 56 56 56 55 54 53 52 50 48 46 45 44 44 43 41 41 40 39 38 37 35 34 33 33 31 30 29 29 28
10 9 8 11 9 9 10 9 9 7 7 8 6 6 7 7 5 3 4 5 4 3 5 4 4 5 5 6 11 16 18 22 27 32 32 30 34 35 33 36 41 44 48 50 51 53 54 56 57 57 58 58 58 58 58 58 58 58 57 56 56 54 53 52 51 49 47 45 44 44 43 42 41 41 40 39 38 37 35 34 34 32 31 30 29 29
8 9 8 10 10 12 13 9 9 10 6 5 7 8 6 7 7 4 4 2 2 3 5 4 3 4 3 5 6 10 15 16 18 20 21 25 32 32 30 36 41 44 48 51 52 54 55 56 57 57 58 58 58 58 59 59 59 59 58 57 56 54 53 52 51 49 47 45 44 44 44 43 42 42 42 41 39 37 36 35 35 33 31 30 30 30
6 6 7 10 12 15 19 14 10 11 9 5 7 8 4 5 5 4 2 3 5 6 5 4 6 4 3 5 5 6 11 13 13 12 13 20 27 28 31 38 43 45 48 50 53 54 56 57 57 57 57 58 58 59 60 60 59 59 57 56 56 55 54 53 51 49 47 45 44 44 44 43 43 43 42 41 40 37 36 36 36 34 33 32 31 30
5 5 6 10 13 13 14 13 9 10 12 9 6 6 5 4 5 4 4 5 7 6 4 5 6 5 5 5 5 8 12 13 14 14 13 16 20 25 33 41 43 44 45 48 51 53 55 57 58 57 57 57 58 59 59 59 58 58 57 56 55 55 53 52 50 49 47 45 44 43 43 43 43 43 42 41 40 39 37 37 36 36 35 33 32 31
5 5 5 7 11 10 8 8 8 9 10 8 5 5 4 5 6 5 4 5 5 5 4 4 5 5 6 6 7 11 12 12 14 15 14 16 21 30 37 40 42 41 42 46 50 53 55 57 58 58 57 57 58 58 58 57 57 57 57 56 55 54 52 51 50 49 48 46 45 44 43 43 43 43 43 41 41 40 39 37 36 36 36 34 33 32
4 5 5 6 6 8 6 6 10 10 8 8 7 7 5 3 3 4 4 3 5 5 4 4 5 6 5 5 8 11 12 11 14 16 16 18 27 37 40 41 42 42 43 47 51 54 56 57 57 57 57 56 56 56 56 56 57 57 57 56 55 54 53 52 51 49 48 47 45 44 43 43 43 43 43 42 42 41 40 38 37 37 37 36 35 34
6 4 6 6 6 6 6 6 11 14 12 10 8 8 8 4 4 5 5 3 2 5 5 5 5 7 6 4 7 11 11 9 12 16 15 19 29 37 41 45 46 45 46 48 50 54 55 55 55 55 55 54 54 54 55 56 56 56 56 56 55 54 53 52 51 49 48 47 46 45 43 42 42 42 43 43 43 42 41 40 39 38 38 38 37 35
10 6 6 8 8 8 8 7 10 16 17 13 10 9 7 5 5 6 6 4 2 4 4 4 5 8 6 5 6 9 8 7 12 16 15 20 32 39 41 44 46 47 49 51 52 54 55 54 55 55 54 53 53 54 54 55 55 56 57 56 55 54 54 53 51 49 48 47 46 45 42 42 42 42 43 44 44 44 43 41 40 39 39 39 38 37
10 5 6 8 7 8 10 7 6 10 14 13 11 10 9 8 6 6 6 4 3 5 4 4 6 8 6 6 7 8 6 7 12 17 16 17 26 34 38 42 45 47 50 52 53 55 55 54 52 52 53 53 53 53 53 54 55 56 56 56 56 55 54 53 51 50 48 47 46 45 43 42 42 42 43 44 45 45 44 43 41 40 40 40 39 39
9 6 6 6 6 7 10 8 6 6 9 9 9 12 14 13 10 6 4 4 3 6 6 5 7 7 5 5 9 11 9 6 7 13 17 17 19 27 35 41 45 48 50 52 53 53 51 47 46 48 51 53 54 53 53 54 54 55 55 56 56 55 53 52 51 51 50 48 47 46 44 43 42 43 44 44 46 46 46 45 43 42 41 41 41 40
8 8 8 8 9 10 9 8 7 6 6 7 8 13 17 17 15 9 4 5 6 5 6 5 6 6 7 5 10 15 16 12 7 8 16 21 24 29 35 40 43 46 49 51 51 49 46 44 46 49 51 53 54 53 53 54 54 55 55 55 55 54 53 52 52 51 51 50 48 47 46 44 43 43 44 44 45 47 47 47 45 43 42 42 42 41
5 7 10 15 13 12 11 8 6 6 7 9 9 13 17 18 18 12 6 6 6 4 5 6 5 4 7 7 8 12 15 13 9 6 9 17 24 28 31 37 42 47 51 50 48 45 43 44 47 50 51 52 53 53 53 54 54 55 55 55 54 53 53 52 52 52 51 50 50 49 47 45 44 42 43 44 45 46 48 48 47 46 44 43 42 42
2 5 10 18 17 15 15 13 10 7 10 13 12 12 16 18 18 14 10 8 8 6 8 7 6 6 8 8 8 11 13 11 7 6 8 15 24 29 30 32 35 39 43 44 44 43 43 44 46 48 50 52 52 52 53 53 53 54 54 54 53 52 52 52 52 52 52 51 50 50 49 46 44 42 42 43 44 46 48 49 49 48 46 45 44 43
1 5 8 14 19 19 17 17 17 11 8 12 14 14 16 19 20 18 15 10 10 8 9 8 10 10 8 7 8 9 10 8 6 8 10 14 22 30 35 37 38 38 38 39 41 43 44 46 47 48 50 51 50 50 51 51 52 52 53 53 52 53 53 53 53 53 52 52 51 51 49 47 45 43 42 43 45 47 48 49 50 49 48 47 46 45
2 4 7 9 16 20 18 18 20 16 10 10 12 14 15 18 20 20 16 13 13 11 8 9 12 11 8 8 9 10 12 8 5 4 6 8 12 19 29 34 36 36 37 41 44 46 48 49 48 49 49 49 48 49 49 50 51 51 52 53 53 53 53 53 54 53 53 53 52 51 50 48 46 45 44 45 46 47 48 49 49 50 49 48 47 46
5 4 8 11 9 17 20 19 19 18 14 10 10 12 14 16 18 18 17 13 11 9 7 9 11 9 7 7 8 12 14 9 6 4 7 9 10 14 21 26 29 34 37 42 45 47 49 49 48 48 48 48 48 48 48 49 49 50 51 52 53 53 54 54 54 55 54 54 53 52 50 49 48 47 47 47 47 47 48 48 49 50 49 48 47 46
4 5 8 9 5 9 16 20 20 19 14 11 11 12 11 12 14 14 14 11 9 9 8 7 8 7 7 8 8 11 10 8 7 6 8 12 15 16 19 24 30 34 37 40 42 43 44 46 46 46 47 48 47 46 47 48 48 49 50 52 53 54 54 55 55 55 55 54 53 52 51 50 49 48 48 48 48 48 48 48 49 50 50 49 48 46
4 5 6 5 5 6 11 19 19 15 12 12 12 12 10 9 9 8 9 11 12 12 9 8 9 8 8 8 8 10 8 7 8 9 10 12 17 20 21 23 27 30 32 34 37 38 40 43 45 47 47 47 45 42 44 46 49 51 52 53 55 55 55 55 56 55 55 54 53 52 51 51 50 49 49 49 48 48 48 49 50 51 50 49 47 46
6 6 5 2 2 7 9 12 13 11 12 10 6 10 13 11 10 7 6 8 9 8 6 5 7 7 7 8 10 10 8 4 5 8 6 6 14 22 24 23 24 25 28 32 34 36 39 41 44 46 46 44 42 40 41 45 48 49 51 53 54 55 55 56 56 56 55 55 54 52 51 51 51 50 49 49 48 48 49 50 51 50 49 48 47 47
9 7 6 3 3 7 7 7 11 12 12 6 3 5 12 13 13 10 3 1 3 6 5 3 2 2 4 6 9 11 10 14 16 12 11 8 2 13 20 24 25 25 28 32 33 35 37 39 44 47 47 45 45 43 43 46 47 49 51 53 54 55 56 56 56 56 56 56 55 53 51 51 51 50 49 49 49 49 49 50 50 50 49 48 48 47
11 8 6 4 3 4 5 5 9 8 5 2 6 3 6 9 10 9 4 5 5 4 4 5 5 5 3 2 4 11 19 28 30 26 23 18 11 4 5 16 23 26 29 33 36 39 40 42 47 49 48 48 49 48 47 47 48 50 53 54 54 55 56 56 57 57 56 57 56 54 52 51 50 50 49 49 49 49 49 50 50 49 49 48 47 47
12 8 5 4 4 3 4 5 4 2 2 1 2 3 3 6 9 9 5 2 6 4 2 8 8 6 6 3 2 6 14 20 18 18 21 20 16 13 10 2 7 15 21 26 32 37 41 45 48 50 49 50 50 50 48 48 49 52 53 54 54 55 55 56 57 57 57 57 57 56 53 50 50 50 50 49 49 49 49 49 49 49 48 48 47 46
9 9 7 4 3 2 3 4 3 4 5 5 5 5 1 6 10 11 8 0 6 6 2 5 7 4 4 4 3 5 8 9 5 6 13 17 14 13 13 11 7 2 5 11 20 27 31 38 43 45 47 48 49 48 48 49 51 53 53 54 54 54 55 56 56 56 57 58 58 56 54 52 50 50 50 50 49 48 48 47 47 48 48 48 47 45
6 5 7 5 4 3 3 4 4 4 5 6 4 3 4 11 12 10 8 0 5 6 4 4 7 6 3 5 7 7 7 5 1 5 9 14 14 12 12 11 11 9 7 4 6 12 18 26 32 35 39 44 47 48 48 47 48 50 52 52 53 54 55 56 56 55 56 57 57 57 55 52 51 51 50 50 49 48 47 46 46 47 47 47 46 44
7 3 1 2 3 4 3 4 3 2 2 3 2 2 3 10 11 9 4 3 5 4 2 6 7 6 6 7 9 8 6 4 5 2 9 14 14 12 11 11 10 8 7 7 5 1 4 12 21 30 37 43 46 48 49 47 45 46 49 51 52 53 55 55 54 53 53 55 56 55 54 53 52 51 51 50 49 48 47 46 46 46 46 45 44 42
3 2 2 3 3 5 4 4 3 1 2 7 13 13 8 3 7 4 5 6 4 1 6 11 11 10 12 13 11 7 6 6 5 5 11 13 12 13 12 10 9 7 6 5 3 3 2 2 9 18 29 38 44 47 49 49 48 47 48 50 52 53 54 54 53 52 53 55 55 55 54 54 54 53 52 51 50 48 47 46 45 45 45 44 42 41
2 2 3 3 4 5 4 3 1 2 4 15 24 21 9 2 4 5 5 7 9 9 13 17 15 15 19 19 15 11 10 10 10 10 12 13 12 12 11 9 7 5 3 2 2 5 6 5 5 8 14 25 36 42 41 42 46 49 50 52 52 52 52 53 53 53 54 54 55 55 55 55 55 55 53 52 51 49 47 46 45 44 43 41 40 40
1 1 4 3 3 3 4 4 2 2 6 22 25 14 6 2 6 9 10 12 15 17 19 20 18 16 18 19 17 15 12 11 11 12 13 12 12 12 11 10 10 8 6 5 5 5 6 9 11 11 11 13 22 31 35 35 38 42 46 50 52 52 52 53 54 54 55 55 55 55 55 55 56 55 54 53 52 50 48 46 45 43 41 40 40 40
1 0 3 2 0 1 2 4 2 2 11 21 15 6 6 3 11 19 16 12 16 20 21 21 19 16 17 17 16 15 13 12 12 13 13 12 12 11 10 9 9 10 10 10 10 10 9 10 11 13 14 13 15 21 28 32 35 39 41 44 48 49 50 54 56 55 55 55 54 53 54 54 54 55 54 54 52 50 49 47 45 43 41 40 41 40
1 0 2 2 2 1 3 5 6 7 14 20 15 13 18 13 17 26 24 19 18 19 21 22 19 17 17 16 16 17 15 13 12 11 12 12 12 11 10 9 9 10 10 10 10 11 12 11 11 11 13 14 16 18 22 27 32 36 39 43 46 46 45 48 54 56 55 54 53 52 52 52 52 53 54 54 53 51 49 47 45 43 42 41 40 39
2 1 2 2 1 2 4 6 8 9 14 22 24 26 28 19 14 25 29 26 22 22 24 25 23 21 20 19 20 20 17 14 12 11 10 10 10 10 9 8 9 10 10 10 9 9 9 9 8 8 9 11 14 17 20 23 26 31 34 37 42 44 41 40 44 49 51 52 52 52 52 52 52 53 53 53 52 51 49 47 45 43 42 40 38 36
1 2 0 1 1 1 2 5 8 9 12 20 26 29 29 21 13 21 29 26 25 27 28 27 27 27 25 24 25 24 20 17 15 14 13 11 10 9 9 8 8 9 9 10 11 10 8 8 7 7 8 10 13 16 19 22 26 30 32 33 36 38 36 34 36 41 46 49 51 52 54 54 54 54 54 53 52 50 47 45 44 43 41 39 37 35
1 3 2 1 2 1 2 5 10 9 14 22 27 29 27 21 12 17 26 27 27 28 28 27 27 27 26 26 25 24 23 21 19 18 17 15 13 11 10 9 8 8 7 8 9 9 9 9 8 8 9 10 12 15 18 21 24 28 33 36 37 35 33 32 32 34 40 47 51 52 54 56 56 55 55 53 51 49 46 44 42 41 38 36 35 35
2 2 1 1 1 1 3 5 7 6 12 22 28 31 28 19 10 10 22 30 29 30 30 29 28 27 27 27 24 23 25 25 22 21 20 18 17 14 11 9 8 8 8 7 7 8 9 9 9 9 9 9 11 13 16 17 21 25 30 34 36 33 32 32 33 31 31 36 44 49 51 53 56 57 56 54 51 47 44 42 38 35 32 31 30 29
2 0 1 1 2 0 2 3 3 2 3 11 20 25 25 18 10 5 13 26 29 30 32 32 31 31 30 28 26 25 27 27 24 23 23 23 21 18 15 11 9 8 8 8 8 8 9 9 8 8 9 9 9 12 14 17 21 24 27 30 32 33 32 34 37 36 28 22 30 43 48 50 53 54 53 52 50 46 42 37 32 28 27 26 25 23
1 1 1 1 2 2 3 2 2 6 4 7 13 16 18 18 13 8 7 19 26 27 29 31 32 31 31 29 28 28 28 28 26 25 25 25 24 22 20 17 14 12 11 9 7 6 6 6 7 8 7 7 7 8 11 15 19 22 25 27 29 32 34 37 41 43 36 25 26 38 44 43 43 45 46 46 45 41 38 35 30 26 23 23 22 21
Wind_Direction
199 211 227 219 220 209 225 218 207 225 232 244 252 243 254 260 263 256 256 243 181 161 173 173 166 161 164 168 170 173 173 171 171 171 173 175 177 180 183 186 190 195 200 201 202 202 204 205 207 207 206 207 209 212 213 214 214 214 213 211 211 209 208 206 204 205 205 204 204 206 208 209 208 210 212 213 217 220 221 221 223 226 227 226 226 230
194 210 230 216 214 210 219 225 210 221 237 245 249 253 260 253 259 263 269 258 202 182 194 177 162 167 172 171 170 170 172 174 175 174 176 177 179 182 184 187 192 196 198 199 200 203 204 206 206 206 207 207 208 210 213 215 215 215 216 215 213 211 209 209 207 206 206 207 207 208 209 209 208 209 211 212 214 218 219 220 224 228 229 227 228 232
204 218 224 208 206 216 221 228 220 222 230 241 245 251 258 249 263 273 270 269 229 197 199 184 171 175 178 176 170 169 175 178 178 178 178 179 181 183 185 188 192 194 195 196 199 202 204 206 205 206 208 209 210 210 212 214 215 215 216 217 216 214 211 211 211 210 210 210 211 212 212 211 210 211 212 214 216 218 218 220 224 227 228 227 229 233
210 217 212 199 197 211 225 231 228 231 228 234 238 239 253 246 248 265 261 261 234 208 191 182 174 178 178 176 176 176 177 179 181 182 181 181 183 186 189 190 191 192 193 195 198 200 203 205 204 204 207 209 210 210 211 212 212 214 216 217 217 215 213 212 213 213 213 213 213 215 215 214 214 215 215 216 219 221 221 221 222 223 224 227 230 231
219 200 196 200 200 204 218 227 224 229 229 232 233 231 247 247 233 241 260 283 259 239 179 159 149 205 183 175 185 183 178 180 182 182 182 185 186 188 190 192 192 193 194 195 197 199 201 203 203 204 206 208 210 211 212 212 212 214 217 218 217 216 215 214 214 214 213 214 214 214 214 214 215 216 217 217 218 221 222 222 222 222 224 227 231 231
227 204 194 202 206 205 212 222 220 218 223 237 235 231 241 249 247 246 261 297 277 262 194 154 156 262 221 184 184 185 180 183 183 182 184 187 189 189 189 192 194 194 196 196 197 198 200 203 204 204 205 207 210 213 215 215 214 215 216 217 217 217 216 215 214 214 214 214 215 214 213 212 212 214 216 218 219 221 222 223 223 223 224 228 231 230
220 209 201 204 206 207 211 219 221 211 211 234 227 227 240 249 254 254 258 266 202 243 224 180 180 221 241 207 190 184 183 185 184 186 187 186 189 190 190 193 194 195 196 197 198 198 199 201 203 204 205 207 211 215 217 217 217 216 216 216 218 218 218 216 215 214 214 215 215 216 216 214 214 215 217 219 220 223 225 225 223 222 224 226 227 225
191 201 210 212 208 209 212 217 218 204 208 233 210 207 236 246 250 251 254 248 219 253 262 209 193 171 197 214 199 185 182 184 187 190 190 187 189 191 192 194 194 195 197 197 198 199 199 201 203 204 206 208 212 214 215 216 217 217 217 217 218 219 219 218 216 215 215 217 216 217 217 217 217 219 221 220 220 223 225 225 221 220 222 221 219 220
174 197 207 211 214 216 212 215 213 202 215 237 206 200 229 240 248 249 249 249 219 219 264 235 206 194 217 212 196 187 184 186 193 195 193 189 191 193 194 194 195 197 198 198 199 200 201 202 204 206 208 209 211 213 215 217 218 218 217 216 216 218 220 220 218 217 217 219 219 218 217 217 217 220 223 221 220 220 221 221 219 216 217 216 216 220
186 204 204 204 219 221 210 217 213 205 218 227 204 212 234 238 248 250 243 246 225 203 227 220 197 219 272 220 186 190 191 194 199 200 197 191 191 194 195 195 196 197 198 199 201 202 203 204 206 208 209 210 210 212 216 218 218 217 216 215 214 216 219 221 221 221 220 220 221 221 219 217 216 218 221 221 220 219 217 217 217 215 215 215 217 221
223 222 211 203 216 214 205 213 214 211 217 215 196 214 244 248 251 267 252 223 226 234 228 212 196 201 257 240 186 191 194 195 198 201 203 196 191 194 196 197 196 196 198 200 202 204 205 206 207 208 209 210 210 212 215 216 216 216 215 215 215 217 219 221 222 223 223 222 222 222 220 218 217 217 218 218 218 218 216 215 215 216 215 216 219 223
234 235 231 211 213 209 202 211 215 212 213 214 197 196 231 261 268 281 277 190 207 240 240 217 202 198 224 242 200 203 202 195 194 197 201 201 195 195 196 197 197 196 198 199 201 204 205 206 206 207 209 210 209 210 211 213 214 215 215 216 215 216 218 220 222 223 224 224 224 224 222 221 220 219 218 218 218 217 215 214 215 215 215 217 221 224
232 235 243 236 224 212 199 208 217 213 209 209 197 176 194 226 246 246 243 222 215 240 240 207 200 204 218 220 200 205 208 202 198 198 200 201 199 196 195 197 198 197 197 198 201 203 204 205 205 206 208 209 208 209 210 211 212 214 215 216 216 216 217 219 221 223 225 225 226 226 224 222 222 221 221 222 221 218 216 215 215 216 217 218 220 222
248 254 240 237 239 220 206 199 206 211 204 203 194 176 187 195 208 225 236 248 234 251 245 195 191 212 227 225 202 199 205 205 202 202 204 203 200 198 196 197 197 197 196 198 200 202 204 205 206 207 209 209 209 209 210 210 211 213 214 215 216 217 218 218 220 222 225 226 227 227 225 223 222 222 222 223 224 221 218 217 218 220 222 221 222 224
223 252 227 221 224 210 211 205 191 185 190 205 190 164 189 193 191 205 208 219 227 258 263 202 188 197 197 216 204 196 202 203 202 206 208 205 201 200 199 197 196 197 197 199 201 202 204 207 208 209 209 210 210 210 209 210 210 212 213 215 216 217 217 218 219 221 224 226 228 227 227 225 222 222 223 224 225 224 220 219 221 223 225 226 227 227
215 240 230 226 224 206 214 204 176 167 186 208 178 157 201 192 168 203 204 189 184 235 257 223 206 207 206 227 207 195 199 200 203 207 207 204 201 198 197 195 195 197 198 199 201 202 205 208 209 210 210 211 211 210 210 210 210 211 213 215 216 217 218 219 219 221 224 226 228 227 227 225 224 223 223 224 225 225 222 221 223 224 226 228 229 229
201 240 237 229 236 224 221 207 177 179 184 203 193 189 195 162 158 213 245 236 182 226 247 226 247 281 275 268 233 198 200 203 204 203 199 198 198 194 193 195 197 197 198 199 201 203 205 208 210 212 211 211 210 210 211 211 212 213 213 213 215 216 218 219 221 222 224 226 227 227 227 226 225 224 223 224 224 224 223 222 224 226 226 227 228 228
178 247 244 217 233 234 224 223 216 195 172 166 204 202 165 129 161 181 198 247 227 234 263 234 234 257 239 255 257 195 197 210 207 196 192 194 193 193 196 199 200 200 199 200 202 204 207 208 211 212 212 212 212 212 213 213 213 213 214 214 214 215 217 219 221 223 224 225 226 227 227 226 226 225 224 225 225 225 224 222 223 225 226 226 227 228
181 254 269 217 221 231 222 220 234 222 195 182 188 188 168 168 190 179 179 206 211 224 264 260 241 225 207 229 233 205 204 207 203 195 191 189 188 195 200 203 204 202 201 201 202 205 207 208 210 212 212 212 213 213 214 213 212 212 214 215 216 218 220 221 222 223 225 226 226 227 227 227 227 226 225 225 225 225 225 223 223 224 226 226 226 227
188 218 270 239 219 218 214 205 216 230 218 199 183 184 182 179 188 193 189 180 184 208 228 244 247 236 224 209 200 218 218 200 196 196 191 190 192 197 201 204 204 201 199 201 203 205 208 209 211 213 213 213 213 213 213 211 211 212 213 214 216 218 219 221 222 223 224 225 226 226 227 227 227 226 226 225 226 226 225 225 224 225 226 226 227 228
192 199 235 268 247 215 210 203 201 206 210 206 200 200 200 181 175 195 210 175 155 178 191 205 234 252 246 203 189 222 230 203 194 196 193 195 197 199 201 203 202 200 198 199 202 205 208 210 212 213 214 213 213 212 211 210 211 212 212 213 215 216 217 218 221 222 224 224 224 226 226 227 228 227 227 226 226 226 226 226 225 226 227 227 228 228
195 204 219 245 256 230 225 215 197 195 199 202 205 205 195 172 138 176 239 279 150 176 181 178 231 262 250 197 186 216 230 212 195 197 199 198 197 201 203 203 203 202 201 201 202 206 209 210 211 212 212 211 210 210 210 210 210 210 211 213 215 216 216 218 220 222 223 223 223 225 226 228 228 228 227 227 226 226 226 226 226 227 227 227 228 229
190 192 210 226 240 239 235 231 209 200 199 199 207 205 185 169 152 169 219 259 221 222 202 169 232 263 248 208 200 215 221 215 206 204 204 200 198 201 204 204 204 204 204 204 205 208 211 212 212 211 210 209 209 209 209 208 209 211 212 213 214 215 217 219 220 221 222 223 223 225 226 228 229 228 228 227 226 226 225 225 227 227 227 227 228 229
189 195 205 218 246 256 248 257 261 220 202 202 209 199 189 194 178 168 188 181 193 228 199 188 237 263 263 227 227 239 216 199 210 210 209 207 204 203 201 202 204 204 204 205 207 210 212 212 211 208 206 206 207 208 208 208 209 211 212 212 213 216 218 218 218 219 220 221 223 224 225 227 228 228 228 227 226 226 225 225 227 228 229 229 229 229
204 193 176 195 221 243 250 255 264 239 213 210 206 195 200 198 177 167 175 162 216 223 178 185 233 254 273 228 231 258 251 221 215 208 205 205 205 204 201 200 201 201 202 204 206 209 210 208 207 205 205 205 206 207 208 208 210 211 212 212 213 215 217 217 217 218 218 220 222 223 224 225 227 227 228 227 226 226 225 225 226 229 230 230 230 231
236 197 172 191 206 211 224 232 222 205 210 221 205 194 200 196 185 180 161 180 227 221 170 187 227 259 289 246 224 247 256 255 250 210 201 202 204 206 202 198 198 199 201 204 205 206 206 205 205 206 206 206 206 207 209 210 211 211 213 213 214 214 215 216 217 217 217 218 220 222 223 224 225 227 228 228 226 226 225 225 226 229 230 230 230 231
261 218 203 200 205 207 208 222 212 167 183 215 209 195 198 198 194 185 170 194 197 173 201 214 197 233 274 256 224 235 247 254 255 235 214 206 207 210 205 198 197 198 201 203 203 204 204 204 205 206 206 207 207 208 210 211 212 212 213 213 213 214 215 216 216 216 216 218 219 221 223 223 225 227 228 228 227 226 225 225 227 229 231 231 231 232
283 284 246 211 207 208 203 213 215 175 183 206 205 197 198 198 195 189 199 198 151 156 228 223 179 209 249 252 237 234 240 251 263 260 232 204 199 202 203 202 201 203 204 202 202 203 204 206 207 206 207 209 209 210 211 212 213 212 213 213 212 212 214 216 216 216 216 217 219 221 223 224 225 226 228 228 228 227 226 226 227 229 231 232 232 232
225 281 277 230 218 211 202 210 214 201 187 199 202 198 196 198 198 199 205 184 149 182 220 192 183 209 232 242 241 235 233 235 243 246 230 212 202 195 194 200 204 206 205 202 202 205 206 208 209 208 209 210 209 210 210 211 213 213 213 214 213 212 214 216 216 216 216 218 220 223 224 224 225 226 227 228 228 227 226 227 228 230 231 232 233 234
295 268 300 274 233 213 206 209 213 213 200 194 206 203 194 198 201 204 207 188 179 202 202 178 199 217 222 225 233 241 237 221 205 208 191 199 206 195 194 200 203 203 202 203 205 207 208 211 211 210 209 209 209 210 211 212 213 214 214 214 214 213 215 216 217 217 217 219 223 224 223 224 225 225 226 226 227 228 227 227 228 229 231 232 233 234
339 291 317 319 259 216 210 207 210 217 205 192 208 209 200 201 201 204 208 196 191 208 197 187 208 229 242 231 229 244 240 216 188 175 169 182 187 187 196 202 201 202 205 207 208 208 208 210 210 209 208 210 212 213 214 215 216 216 216 215 215 215 215 215 217 218 219 221 224 223 223 225 225 225 226 226 227 228 228 228 228 229 231 232 233 234
320 295 317 337 309 230 213 205 210 217 210 206 217 211 203 204 202 205 205 189 181 194 195 199 211 232 249 234 231 244 233 210 211 196 181 197 193 185 193 196 196 200 206 209 210 208 207 207 207 208 209 212 215 216 217 219 218 217 217 217 218 218 215 214 216 219 221 222 222 221 223 225 225 225 226 226 227 228 228 228 228 228 230 231 233 234
286 297 315 343 333 280 224 204 204 211 216 228 226 201 188 198 202 211 214 201 196 192 187 204 216 218 219 204 209 230 223 209 219 196 171 186 191 186 190 195 197 200 204 209 211 209 207 207 208 211 212 213 216 219 223 224 222 221 222 222 221 217 214 214 216 219 222 222 221 222 224 225 224 225 226 227 227 227 228 228 228 228 229 231 232 233
261 274 285 298 314 285 248 192 179 200 218 231 220 173 175 191 190 189 210 217 217 209 196 218 230 224 220 200 191 212 219 187 198 204 187 186 191 187 188 193 199 201 203 208 213 214 213 212 214 216 216 216 217 220 224 225 225 225 225 223 220 216 214 215 216 218 221 222 221 222 224 224 224 225 226 227 227 226 227 227 228 228 229 230 231 232
264 268 268 233 201 273 271 167 165 205 220 234 279 194 181 181 174 168 165 325 259 234 221 243 267 231 239 224 184 174 149 101 79 54 36 32 214 202 197 197 197 199 203 205 209 214 218 219 220 220 219 217 217 219 222 223 224 225 224 221 218 216 216 216 217 218 220 221 221 222 223 224 225 225 226 226 226 226 226 227 227 228 229 229 230 231
254 257 255 240 215 268 276 189 186 218 228 286 322 288 170 159 154 138 76 357 315 265 199 162 151 151 166 239 195 156 126 98 74 49 38 37 33 22 220 211 205 203 204 205 207 211 215 219 221 221 222 220 219 220 221 222 223 223 222 220 218 218 217 216 216 218 219 219 221 221 222 224 225 225 224 224 224 225 225 226 227 228 228 228 230 232
245 238 240 253 234 227 251 241 212 189 170 179 304 280 174 163 161 139 113 311 305 323 154 150 142 145 156 159 213 167 126 97 69 39 31 34 36 39 38 11 218 211 212 214 214 214 215 218 219 220 221 220 219 220 222 222 222 221 220 219 219 218 217 215 216 217 219 219 220 221 222 223 224 223 223 223 223 224 225 226 227 227 228 228 229 231
251 219 209 231 239 210 222 237 193 162 188 208 238 263 228 127 138 127 109 331 306 336 355 140 119 105 137 117 114 156 121 79 45 7 27 37 36 35 42 47 53 110 212 226 226 223 221 221 223 223 223 221 220 222 224 223 221 220 219 219 219 218 217 216 217 218 220 220 221 221 222 223 223 223 221 221 223 224 225 225 226 227 227 228 229 231
307 220 196 208 252 257 218 221 207 178 206 223 223 233 145 130 123 100 85 69 282 319 355 97 97 86 99 91 93 115 102 78 221 288 16 48 52 45 48 53 57 75 89 108 206 227 232 230 230 231 231 229 227 225 225 225 223 221 220 221 221 219 217 217 219 220 221 223 223 221 220 221 222 223 222 222 223 224 224 224 225 226 227 228 229 231
348 343 152 163 267 275 243 231 223 163 238 271 356 20 172 146 116 91 107 212 257 294 54 95 91 81 89 85 79 82 86 125 184 294 25 52 60 59 65 60 50 57 64 67 82 104 238 233 235 236 235 236 236 232 230 229 226 224 225 225 222 219 219 221 223 224 225 225 223 220 219 220 221 222 222 223 223 223 223 223 223 224 225 226 227 229
342 340 34 47 340 314 287 242 231 160 28 360 350 332 309 135 109 124 197 200 205 183 80 84 81 74 75 74 72 79 89 100 104 51 38 47 50 53 62 66 64 63 51 42 36 10 17 216 236 241 240 240 239 237 235 233 231 230 231 228 223 221 225 228 228 227 226 224 222 220 219 219 220 222 222 222 222 221 220 221 222 223 223 223 224 226
340 344 32 39 357 330 295 262 243 152 48 360 339 325 327 81 180 207 175 131 120 97 75 73 73 74 76 76 78 86 86 73 61 46 37 36 36 39 39 38 48 58 60 54 343 301 293 282 273 263 254 246 241 237 234 233 232 233 233 229 226 229 233 233 230 227 225 223 221 220 218 217 217 219 219 219 218 218 218 219 220 221 221 221 222 223
317 341 45 42 357 333 298 310 14 159 337 344 337 331 5 31 188 154 120 105 95 87 80 74 70 72 77 76 73 71 65 52 41 33 28 26 24 24 21 18 17 12 2 359 353 334 316 305 298 294 288 271 254 245 240 237 235 235 232 230 232 236 237 234 230 228 225 222 221 220 218 216 214 214 214 214 214 215 216 216 216 217 218 219 218 218
327 307 95 103 69 32 306 330 22 244 310 329 327 322 358 27 134 124 112 101 91 89 90 82 73 77 83 79 72 66 55 44 34 19 14 15 10 7 5 360 358 358 353 347 342 335 326 316 308 303 298 292 277 260 249 246 245 241 236 233 235 236 234 230 228 226 224 222 220 218 216 213 210 209 209 210 210 211 212 212 212 212 214 215 215 214
8 258 146 149 154 168 251 271 274 288 318 333 341 4 16 40 108 114 107 103 99 100 102 96 88 89 92 90 86 76 64 55 45 28 19 17 8 1 359 348 340 344 347 346 342 332 322 312 308 310 306 296 285 269 253 249 249 248 245 242 238 236 234 230 226 223 221 220 218 215 213 209 206 204 205 206 207 207 208 208 208 208 208 210 211 212
49 79 138 148 166 252 253 254 269 301 335 348 3 26 32 34 82 105 104 103 102 102 104 103 101 99 98 99 95 85 76 69 62 51 40 30 18 10 3 351 340 336 331 329 329 325 319 312 308 308 302 283 268 255 246 244 246 247 248 244 238 235 237 235 228 222 218 217 214 211 208 203 200 199 200 202 203 204 206 206 206 205 205 205 208 211
57 42 91 126 80 335 287 287 299 319 355 3 12 32 36 24 46 94 101 101 103 103 102 102 102 102 99 98 94 88 82 78 72 66 57 47 36 22 10 2 357 347 333 326 323 313 298 288 285 282 273 261 255 250 242 239 240 242 242 239 234 231 230 229 227 224 220 214 210 206 202 197 194 193 194 195 197 199 201 203 204 203 202 202 205 208
10 5 356 101 97 191 245 284 302 333 18 19 17 25 24 12 25 89 103 105 105 104 103 102 101 100 97 94 93 90 84 78 74 71 65 56 47 34 20 15 15 9 356 337 323 310 289 270 257 254 260 262 260 254 243 237 239 243 243 239 235 228 219 212 212 216 217 213 206 199 194 191 189 188 188 189 191 193 195 198 200 201 202 205 207 208
284 339 287 145 90 252 251 287 304 340 15 15 14 17 17 12 14 78 103 107 105 102 100 98 95 95 93 91 91 89 84 78 74 71 68 60 53 46 37 31 32 31 24 5 342 324 300 275 254 246 251 256 257 249 238 233 236 240 240 239 235 228 217 208 203 200 202 202 194 186 183 183 183 183 183 184 186 188 190 192 196 199 201 204 206 207
222 205 205 135 86 205 268 323 354 67 19 5 12 16 17 19 11 25 95 103 103 103 103 100 95 92 90 88 87 88 85 80 76 74 70 64 58 54 51 50 52 50 40 28 11 348 322 300 280 261 252 255 261 256 247 242 239 235 231 230 230 225 214 205 200 193 187 181 175 172 170 169 171 175 179 180 180 181 181 183 188 192 194 195 196 200
206 355 270 156 142 228 271 314 93 119 100 40 37 30 21 21 14 358 71 98 103 105 105 103 100 96 92 89 87 87 86 83 81 79 75 70 65 61 61 63 66 64 56 45 31 12 351 321 292 277 266 259 261 265 268 265 257 245 234 226 223 220 213 205 198 191 186 181 171 167 168 168 170 175 177 175 175 176 175 174 176 179 185 189 189 187